#datint,netname,site,siteID,timestamp,IntT,BattV,AirT2,AirT,AirT_Avg,AirT_Max,AirT_Min,RH_Avg,RH_Max,RH_Min,EA_Avg,Td_Avg,Td_Max,Td_Min,WindS_Smp,WindS_Avg,WindD_Avg,WindD_SD,WindS_Max,ETo,ETr,SoilT4,SoilT8,SoilVWC8,SolarW_Avg,wetstate_Avg,wetT_Avg,Precip_accum,Precip_WPG,Precip_TB
15min,AgWx,beryljct,423,25JUN2018:00:00:00,62.4,13.03,61.6,66.7,61.5,66.7,57.9,36,52,18,0.396,33.5,41.1,21.3,2.477,2.1,293,11,3.5,-0.00002,0.00003,78.2,77.4,12,0,0,58.2,13.85,0.00,0.00
15min,AgWx,beryljct,423,25JUN2018:00:15:00,61.9,13.02,65.6,65.4,65.5,67.2,64.2,24,32,17,0.423,27.1,34.4,20.6,4.253,3.3,321,19,4.8,0.00022,0.00038,77.8,77.3,12,0,0,61.0,13.85,0.00,0.00
15min,AgWx,beryljct,423,25JUN2018:00:30:00,61.6,13.01,62.6,63.3,62.9,67.2,60.0,26,34,17,0.508,26.8,33.7,21.0,2.28,4.3,311,8.5,5.8,0.00034,0.00052,77.4,77.2,12,0,0,59.8,13.85,0.00,0.00
15min,AgWx,beryljct,423,25JUN2018:00:45:00,61.2,13.01,62.3,59.9,62.4,63.8,59.8,26,31,22,0.466,26.6,30.9,23.9,4.253,3.7,324,9.3,4.4,0.00025,0.00040,77.1,77.1,12,0,0,58.9,13.85,0.00,0.00
15min,AgWx,beryljct,423,25JUN2018:01:00:00,60.2,12.98,56.1,56.0,56.5,60.2,54.9,39,45,25,0.577,31.5,34.3,23.8,5.196,3.9,314,9.4,5.2,0.00018,0.00028,76.7,77.0,12,0,0,54.4,13.85,0.00,0.00
15min,AgWx,beryljct,423,25JUN2018:01:15:00,59.3,12.98,60.8,61.9,59.8,62.6,56.2,28,37,22,0.475,26.3,30.5,23.4,3.551,3.8,302,4.0,5.9,0.00025,0.00040,76.4,77.0,12,0,0,56.2,13.85,0.00,0.00
15min,AgWx,beryljct,423,25JUN2018:01:30:00,58.7,12.97,58.3,56.7,58.8,61.9,56.7,36,45,24,0.709,31.9,35.7,24.5,0,0.9,296,1.8,3.6,-0.00022,-0.00030,76.0,76.9,12,0,0,54.8,13.86,0.00,0.00
15min,AgWx,beryljct,423,25JUN2018:01:45:00,57.8,12.95,58.6,60.4,58.0,60.7,55.6,35,45,23,0.478,30.1,35.9,22.7,2.258,0.7,314,10,2.7,-0.00027,-0.00039,75.7,76.8,12,0,0,52.5,13.85,0.00,0.00
15min,AgWx,beryljct,423,25JUN2018:02:00:00,57.4,12.96,58.7,58.0,58.8,60.3,57.1,28,35,23,0.370,25.8,30.8,19.9,3.42,2.4,331,9.1,4.0,0.00005,0.00012,75.3,76.7,12,0,0,54.6,13.86,0.00,0.00
15min,AgWx,beryljct,423,25JUN2018:02:15:00,57.0,12.95,57.8,56.6,57.7,58.7,56.1,27,35,22,0.506,23.7,28.9,19.5,1.228,2.4,336,7.2,4.0,0.00005,0.00013,75.0,76.5,12,0,0,54.1,13.86,0.00,0.00
15min,AgWx,beryljct,423,25JUN2018:02:30:00,56.5,12.95,57.3,57.9,57.0,58.3,56.1,30,40,22,0.374,25.2,32.1,19.7,2.674,2.4,336,4.8,3.3,0.00003,0.00009,74.7,76.4,12,0,0,52.8,13.86,0.00,0.00
15min,AgWx,beryljct,423,25JUN2018:02:45:00,56.3,12.93,57.2,56.8,57.1,58.3,55.0,25,37,21,0.389,21.5,29.6,18.3,4.735,3.4,323,16,4.9,0.00020,0.00032,74.4,76.3,12,0,0,53.9,13.86,0.00,0.00
15min,AgWx,beryljct,423,25JUN2018:03:00:00,55.7,12.92,53.2,50.3,53.8,57.6,50.3,38,55,22,0.676,27.6,34.9,18.0,2.346,3.2,130,97,5.5,0.00012,0.00020,74.1,76.2,12,0,0,51.8,13.86,0.00,0.00
15min,AgWx,beryljct,423,25JUN2018:03:15:00,54.4,12.92,50.3,49.5,50.2,51.3,49.1,53,60,46,0.637,33.5,36.3,31.1,1.293,1.0,146,0.1,2.2,-0.00020,-0.00027,73.7,76.1,12,0,0,47.1,13.86,0.00,0.00
15min,AgWx,beryljct,423,25JUN2018:03:30:00,53.2,12.91,50.6,51.0,50.1,51.8,49.3,50,59,40,0.654,32.2,36.0,28.1,0,0.7,146,0.1,1.7,-0.00025,-0.00036,73.5,75.9,12,0,0,46.9,13.86,0.00,0.00
15min,AgWx,beryljct,423,25JUN2018:03:45:00,52.1,12.91,50.1,53.2,49.7,53.3,47.8,56,71,32,0.500,34.2,38.9,24.3,2.192,1.0,146,0.1,2.7,-0.00020,-0.00028,73.1,75.8,12,0,0,47.1,13.86,0.00,0.00
15min,AgWx,beryljct,423,25JUN2018:04:00:00,51.5,12.89,49.9,47.7,50.2,53.9,47.7,56,75,33,0.766,34.5,40.4,25.6,0,1.9,131,13,3.6,-0.00009,-0.00010,72.9,75.7,12,0,0,47.6,13.86,0.00,0.00
15min,AgWx,beryljct,423,25JUN2018:04:15:00,50.7,12.89,48.2,47.6,48.0,48.9,47.2,57,70,48,0.625,33.6,37.9,29.6,4.056,1.5,163,13,4.1,-0.00014,-0.00018,72.5,75.5,12,0,0,45.4,13.87,0.00,0.00
15min,AgWx,beryljct,423,25JUN2018:04:30:00,49.9,12.89,46.2,45.6,46.2,47.4,45.4,48,58,41,0.489,27.7,33.1,23.8,2.916,3.5,165,8.2,4.6,0.00006,0.00012,72.2,75.4,12,0,0,44.6,13.87,0.00,0.00
15min,AgWx,beryljct,423,25JUN2018:04:45:00,49.0,12.88,44.9,48.4,44.4,48.4,43.4,57,63,41,0.471,29.8,32.1,25.6,2.938,3.0,196,9.7,3.5,-0.00001,0.00002,72.0,75.3,12,0,0,43.4,13.87,0.00,0.00
15min,AgWx,beryljct,423,25JUN2018:05:00:00,48.4,12.88,47.2,45.1,47.3,52.1,45.1,57,70,30,0.714,32.2,36.2,21.0,1.644,3.0,209,3.6,4.7,-0.00000,0.00002,71.7,75.1,12,0,0,46.3,13.87,0.00,0.00
15min,AgWx,beryljct,423,25JUN2018:05:15:00,48.0,12.88,45.6,42.7,45.6,47.3,42.7,61,71,51,0.555,33.0,36.7,27.2,3.025,2.6,247,54,3.8,-0.00006,-0.00005,71.4,75.0,12,0,0,44.4,13.87,0.00,0.00
15min,AgWx,beryljct,423,25JUN2018:05:30:00,47.3,12.87,42.1,41.8,42.0,42.7,41.6,58,67,50,0.542,28.2,31.8,25.1,2.565,3.6,328,1.1,4.6,0.00030,0.00053,71.1,74.8,12,0,0,41.5,13.87,0.00,0.00
15min,AgWx,beryljct,423,25JUN2018:05:45:00,46.4,12.87,42.4,42.7,42.0,42.7,41.4,59,71,45,0.475,28.7,32.9,22.8,1.622,2.6,327,1.5,3.5,0.00023,0.00039,70.9,74.7,12,0,0,40.6,13.87,0.00,0.00
15min,AgWx,beryljct,423,25JUN2018:06:00:00,45.9,12.86,44.5,44.3,44.0,44.6,42.8,44,51,37,0.379,23.2,26.7,19.3,3.179,1.4,330,1.2,3.2,0.00018,0.00032,70.6,74.6,12,0,0,42.0,13.87,0.00,0.00
15min,AgWx,beryljct,423,25JUN2018:06:15:00,45.8,12.87,43.9,42.1,43.9,44.9,42.0,47,64,39,0.586,24.4,31.0,20.6,0.767,2.5,350,4.2,4.7,0.00031,0.00053,70.3,74.4,12,3,0,43.9,13.87,0.00,0.00
15min,AgWx,beryljct,423,25JUN2018:06:30:00,45.6,12.88,44.1,42.5,43.7,44.9,42.0,61,67,54,0.550,31.0,33.6,28.2,4.911,2.4,138,92,6.3,0.00028,0.00044,70.0,74.3,12,17,0,44.0,13.87,0.00,0.00
15min,AgWx,beryljct,423,25JUN2018:06:45:00,45.6,12.87,43.8,45.2,43.2,45.2,41.9,55,60,48,0.490,27.9,29.3,26.1,1.403,3.0,178,3.8,5.3,0.00052,0.00074,69.8,74.1,12,48,0,48.5,13.87,0.00,0.00
15min,AgWx,beryljct,423,25JUN2018:07:00:00,46.3,12.88,46.0,46.7,45.6,46.7,44.8,56,67,47,0.662,30.9,35.4,26.5,0.46,1.0,177,2.2,2.2,0.00050,0.00061,69.5,74.0,12,85,0,58.1,13.87,0.00,0.00
15min,AgWx,beryljct,423,25JUN2018:07:15:00,47.9,12.89,48.1,48.6,47.6,48.7,46.6,63,69,51,0.746,35.5,37.9,31.2,0,0.8,181,1.0,2.3,0.00065,0.00075,69.3,73.8,12,124,0,65.5,13.86,0.00,0.00
15min,AgWx,beryljct,423,25JUN2018:07:30:00,50.4,12.89,49.9,50.7,49.5,50.7,48.4,65,70,59,0.747,38.3,39.6,36.8,0,0.0,176,0.0,0.4,0.00081,0.00087,69.0,73.7,12,167,0,74.1,13.86,0.00,0.00
15min,AgWx,beryljct,423,25JUN2018:07:45:00,53.0,12.9,51.8,52.4,51.5,52.4,50.7,53,63,45,0.650,34.7,38.5,30.8,0,0.1,176,0.0,0.6,0.00106,0.00114,68.8,73.6,12,212,0,79.1,13.86,0.00,0.00
15min,AgWx,beryljct,423,25JUN2018:08:00:00,55.7,12.91,53.9,54.7,53.6,54.8,52.5,51,56,44,0.758,35.8,38.5,32.7,0,0.0,176,0.0,0.4,0.00131,0.00139,68.6,73.4,12,252,0,85.4,13.86,0.00,0.00
15min,AgWx,beryljct,423,25JUN2018:08:15:00,58.3,12.92,55.0,55.8,54.8,55.8,54.3,55,59,51,0.785,39.1,41.1,36.5,3.266,1.6,168,9.2,3.6,0.00173,0.00197,68.4,73.3,12,308,0,86.4,13.86,0.00,0.00
15min,AgWx,beryljct,423,25JUN2018:08:30:00,60.2,12.95,57.0,57.9,56.7,57.9,55.9,54,62,47,0.896,40.4,43.7,37.3,2.521,2.9,142,4.2,3.9,0.00213,0.00251,68.3,73.1,12,358,0,84.6,13.86,0.00,0.00
15min,AgWx,beryljct,423,25JUN2018:08:45:00,62.2,12.99,59.5,60.5,59.2,60.5,57.9,44,56,34,0.639,37.2,42.4,32.0,1.118,2.0,124,3.9,3.6,0.00247,0.00285,68.2,73.0,12,409,0,91.4,13.85,0.00,0.00
15min,AgWx,beryljct,423,25JUN2018:09:00:00,64.8,13.1,61.9,62.2,61.7,62.6,60.4,38,47,33,0.804,36.0,41.7,31.7,1.184,0.8,124,0.0,2.2,0.00274,0.00302,68.1,72.8,12,459,0,101.4,13.85,0.00,0.00
15min,AgWx,beryljct,423,25JUN2018:09:15:00,67.4,13.26,63.8,65.0,63.6,65.0,62.2,43,49,37,0.978,40.6,45.4,35.8,0.986,0.8,126,3.2,1.4,0.00311,0.00341,68.1,72.7,12,509,0,105.1,13.85,0.00,0.00
15min,AgWx,beryljct,423,25JUN2018:09:30:00,70.0,13.4,66.6,67.8,66.4,67.8,65.0,44,54,35,0.816,44.0,49.4,39.3,0.789,1.6,106,11,2.7,0.00358,0.00400,68.2,72.6,12,559,0,106.0,13.84,0.00,0.00
15min,AgWx,beryljct,423,25JUN2018:09:45:00,72.6,13.63,69.1,69.4,69.1,70.5,67.9,29,40,21,0.800,35.6,44.2,28.0,0.351,0.9,110,1.3,1.9,0.00392,0.00432,68.3,72.4,12,606,0,112.8,13.84,0.00,0.00
15min,AgWx,beryljct,423,25JUN2018:10:00:00,75.0,13.86,70.5,71.6,70.4,71.6,69.4,30,39,22,0.739,37.3,43.3,29.1,0.022,0.6,115,7.7,2.1,0.00424,0.00461,68.4,72.3,12,652,0,115.8,13.84,0.00,0.00
15min,AgWx,beryljct,423,25JUN2018:10:15:00,77.3,14.03,71.7,71.9,71.9,72.8,71.4,29,35,20,0.825,37.9,43.0,29.5,0.636,0.8,75,18,3.1,0.00461,0.00505,68.5,72.2,12,697,0,115.9,13.83,0.00,0.00
15min,AgWx,beryljct,423,25JUN2018:10:30:00,79.0,13.97,72.6,73.7,72.7,73.7,71.8,31,39,21,1.103,39.9,47.2,31.7,1.228,1.7,107,20,3.2,0.00504,0.00564,68.8,72.1,12,739,0,116.9,13.83,0.00,0.00
15min,AgWx,beryljct,423,25JUN2018:10:45:00,80.3,13.93,74.2,74.5,74.4,74.8,73.8,29,42,21,1.007,39.8,49.3,31.2,4.165,2.5,81,17,4.2,0.00548,0.00624,69.0,72.0,12,780,0,114.4,13.83,0.00,0.00
15min,AgWx,beryljct,423,25JUN2018:11:00:00,80.9,13.96,74.2,74.8,74.4,74.8,74.1,33,40,25,1.072,43.6,48.6,35.8,3.42,3.5,109,8.0,5.6,0.00582,0.00673,69.4,72.0,12,817,0,111.0,13.83,0.00,0.00
15min,AgWx,beryljct,423,25JUN2018:11:15:00,81.3,13.89,75.3,76.0,75.4,76.1,74.8,36,45,27,1.022,46.3,52.1,39.8,4.691,3.8,109,7.9,6.5,0.00611,0.00707,69.7,71.9,12,852,0,112.1,13.83,0.00,0.00
15min,AgWx,beryljct,423,25JUN2018:11:30:00,82.1,13.9,77.1,78.0,77.2,78.0,76.1,33,40,21,0.699,45.5,51.0,35.3,1.14,2.7,98,15,4.6,0.00633,0.00719,70.2,71.9,12,882,0,115.6,13.83,0.00,0.00
15min,AgWx,beryljct,423,25JUN2018:11:45:00,83.5,13.87,78.7,79.6,78.8,79.7,78.1,28,37,21,0.861,42.5,51.1,35.2,1.688,1.9,102,13,3.3,0.00654,0.00731,70.7,71.8,12,913,0,122.3,13.82,0.00,0.00
15min,AgWx,beryljct,423,25JUN2018:12:00:00,84.8,13.85,79.8,80.5,80.0,80.6,79.5,29,37,21,1.015,44.3,51.4,36.3,4.45,3.0,90,11,4.5,0.00691,0.00788,71.2,71.8,12,940,0,121.2,13.82,0.00,0.00
15min,AgWx,beryljct,423,25JUN2018:12:15:00,85.6,13.83,81.1,82.2,81.3,82.2,80.6,28,38,20,0.897,45.1,52.9,36.5,2.411,3.7,73,11,5.0,0.00722,0.00833,71.7,71.8,12,963,0,116.3,13.82,0.00,0.00
15min,AgWx,beryljct,423,25JUN2018:12:30:00,87.0,13.79,83.9,84.7,83.9,85.2,82.1,22,30,16,1.053,40.7,47.8,33.8,4.209,2.6,30,27,4.2,0.00734,0.00833,72.4,71.9,12,981,0,120.7,13.82,0.00,0.00
15min,AgWx,beryljct,423,25JUN2018:12:45:00,88.5,13.42,85.0,86.5,85.2,86.5,84.1,25,36,15,1.150,44.5,54.9,33.4,3.771,2.9,110,71,7.2,0.00757,0.00863,73.0,71.9,12,997,0,121.3,13.82,0.00,0.00
15min,AgWx,beryljct,423,25JUN2018:13:00:00,89.4,13.35,86.0,85.0,86.4,87.3,85.0,21,29,15,0.905,42.1,50.3,33.2,8.72,7.3,237,17,16.1,0.00835,0.01024,73.7,71.9,12,1011,0,114.9,13.82,0.00,0.00
15min,AgWx,beryljct,423,25JUN2018:13:15:00,89.7,13.37,86.7,87.3,86.7,88.2,84.7,21,28,15,0.824,42.4,50.7,34.1,7.892,8.6,208,28,16.8,0.00860,0.01074,74.4,72.0,12,1016,0,110.7,13.82,0.00,0.00
15min,AgWx,beryljct,423,25JUN2018:13:30:00,89.9,13.35,86.9,88.5,87.1,88.5,86.0,20,29,15,0.779,41.1,50.5,34.2,1.556,7.3,215,30,17.1,0.00851,0.01047,75.1,72.1,12,1022,0,110.6,13.82,0.00,0.00
15min,AgWx,beryljct,423,25JUN2018:13:45:00,90.5,13.32,87.5,87.6,87.9,88.6,86.9,20,29,13,1.103,41.8,51.0,31.0,8.35,8.2,216,26,15.7,0.00867,0.01079,75.8,72.2,12,1021,0,112.0,13.82,0.00,0.00
15min,AgWx,beryljct,423,25JUN2018:14:00:00,90.7,13.37,87.4,86.6,87.7,88.7,86.4,20,25,15,0.706,41.5,47.1,33.9,7.782,10.9,200,30,20.0,0.00902,0.01158,76.5,72.4,12,1018,0,106.9,13.82,0.00,0.00
15min,AgWx,beryljct,423,25JUN2018:14:15:00,90.9,13.39,88.2,88.8,88.3,89.4,86.8,19,26,13,0.994,40.8,48.8,32.0,9.8,7.8,213,32,17.2,0.00856,0.01063,77.1,72.5,12,1008,0,110.3,13.82,0.00,0.00
15min,AgWx,beryljct,423,25JUN2018:14:30:00,91.1,13.34,87.8,88.1,88.2,88.9,87.6,21,25,15,0.908,43.0,47.9,34.7,6.226,10.0,201,16,16.8,0.00880,0.01122,77.7,72.7,12,1001,0,107.1,13.82,0.00,0.00
15min,AgWx,beryljct,423,25JUN2018:14:45:00,91.3,13.42,88.7,89.6,88.9,89.6,88.0,19,27,14,0.798,41.2,49.9,34.2,12.41,10.8,196,16,16.8,0.00887,0.01146,78.4,72.9,12,983,0,106.9,13.82,0.00,0.00
15min,AgWx,beryljct,423,25JUN2018:15:00:00,91.3,13.33,87.6,88.3,88.0,89.5,87.4,20,25,16,0.921,41.6,48.0,36.6,10.17,10.9,219,16,19.7,0.00865,0.01123,78.9,73.1,12,959,0,104.3,13.82,0.00,0.00
15min,AgWx,beryljct,423,25JUN2018:15:15:00,91.3,13.3,88.5,89.1,88.7,89.7,87.7,19,24,15,0.738,40.6,47.1,35.5,24.09,13.5,202,16,25.1,0.00889,0.01188,79.5,73.3,12,934,0,103.5,13.83,0.00,0.00
15min,AgWx,beryljct,423,25JUN2018:15:30:00,91.3,13.3,88.8,89.3,89.0,90.1,88.0,18,23,14,0.833,39.5,46.2,34.5,12.41,13.5,202,18,24.5,0.00884,0.01191,79.9,73.5,12,912,0,102.5,13.83,0.00,0.00
15min,AgWx,beryljct,423,25JUN2018:15:45:00,91.6,13.3,89.2,88.5,89.5,90.3,88.5,17,22,14,1.006,39.0,45.5,33.9,13.07,13.5,195,18,23.5,0.00876,0.01183,80.3,73.7,12,894,0,102.4,13.82,0.00,0.00
15min,AgWx,beryljct,423,25JUN2018:16:00:00,91.9,13.31,88.9,89.3,89.1,90.3,88.3,17,22,14,0.828,39.0,44.9,33.8,10.59,12.3,208,18,19.1,0.00833,0.01118,80.7,73.9,12,861,0,102.1,13.83,0.00,0.00
15min,AgWx,beryljct,423,25JUN2018:16:15:00,92.0,13.26,89.0,90.0,89.2,90.4,88.4,17,21,14,0.819,39.1,43.9,33.7,13.24,12.8,206,15,18.9,0.00819,0.01110,80.9,74.1,12,831,0,100.9,13.82,0.00,0.00
15min,AgWx,beryljct,423,25JUN2018:16:30:00,92.3,13.31,88.8,88.2,89.2,90.2,88.2,17,20,15,0.917,39.2,43.6,35.7,10.04,12.2,213,17,20.5,0.00783,0.01064,81.2,74.3,12,789,0,100.7,13.83,0.00,0.00
15min,AgWx,beryljct,423,25JUN2018:16:45:00,92.3,13.26,88.8,89.0,89.0,89.6,88.2,17,21,14,0.890,38.7,44.0,34.2,11.18,13.3,215,16,19.8,0.00767,0.01063,81.4,74.5,12,744,0,97.3,13.83,0.00,0.00
15min,AgWx,beryljct,423,25JUN2018:17:00:00,92.5,13.27,88.8,88.8,89.0,89.7,88.2,18,24,12,0.822,39.6,46.9,30.2,7.168,10.2,223,18,18.6,0.00698,0.00941,81.7,74.7,12,719,0,98.1,13.82,0.00,0.00
15min,AgWx,beryljct,423,25JUN2018:17:15:00,92.7,13.26,89.2,89.3,89.4,90.0,88.6,17,21,13,0.826,38.9,43.9,31.9,14.07,12.0,204,10,18.2,0.00702,0.00974,81.9,74.9,12,676,0,98.3,13.83,0.00,0.00
15min,AgWx,beryljct,423,25JUN2018:17:30:00,92.6,13.28,88.6,88.9,88.9,89.3,88.0,17,23,14,0.723,37.9,45.4,32.8,22.8,12.5,214,16,22.8,0.00672,0.00949,82.2,75.1,12,625,0,95.2,13.83,0.00,0.00
15min,AgWx,beryljct,423,25JUN2018:17:45:00,92.5,13.32,89.1,89.0,89.4,90.1,88.7,16,19,12,0.788,37.2,41.5,29.8,13.64,12.2,204,9.8,18.9,0.00650,0.00929,82.4,75.3,12,587,0,95.9,13.83,0.00,0.00
15min,AgWx,beryljct,423,25JUN2018:18:00:00,92.4,13.26,89.1,88.3,89.3,90.0,88.3,16,20,14,0.782,37.4,43.4,33.8,9.12,12.0,201,19,19.6,0.00613,0.00885,82.6,75.5,12,541,0,94.4,13.83,0.00,0.00
15min,AgWx,beryljct,423,25JUN2018:18:15:00,92.0,13.28,88.4,88.7,88.7,89.7,87.5,16,20,13,0.686,36.1,42.1,32.1,12.98,12.2,209,18,20.8,0.00580,0.00852,82.8,75.7,12,494,0,93.1,13.83,0.00,0.00
15min,AgWx,beryljct,423,25JUN2018:18:30:00,91.7,13.3,88.6,88.8,88.8,89.6,88.3,15,17,13,0.751,35.1,37.3,32.1,11.03,13.8,207,12,23.3,0.00580,0.00879,83.0,75.9,12,442,0,91.7,13.83,0.00,0.00
15min,AgWx,beryljct,423,25JUN2018:18:45:00,91.3,13.32,88.0,88.0,88.2,89.1,87.7,16,20,12,0.674,35.9,41.5,30.1,12.08,11.9,210,15,18.7,0.00506,0.00767,83.1,76.0,12,396,0,91.1,13.83,0.00,0.00
15min,AgWx,beryljct,423,25JUN2018:19:00:00,90.8,13.29,88.2,88.6,88.4,88.7,87.6,15,18,13,0.609,34.1,38.6,31.7,13.33,13.8,196,10,20.7,0.00511,0.00804,83.2,76.2,12,342,0,89.6,13.83,0.00,0.00
15min,AgWx,beryljct,423,25JUN2018:19:15:00,90.4,13.24,87.9,88.2,88.2,88.7,87.4,14,17,12,0.602,33.4,37.3,29.3,16,12.4,200,10,17.6,0.00449,0.00719,83.3,76.4,12,293,0,89.1,13.83,0.00,0.00
15min,AgWx,beryljct,423,25JUN2018:19:30:00,90.0,13.2,87.8,87.4,88.1,88.5,87.3,14,15,13,0.658,32.5,34.9,30.4,11.75,13.4,199,9.6,19.2,0.00439,0.00725,83.3,76.5,12,244,0,88.3,13.83,0.00,0.00
15min,AgWx,beryljct,423,25JUN2018:19:45:00,89.4,13.18,87.1,87.5,87.3,88.2,86.3,14,17,12,0.574,32.5,36.6,29.3,13.68,12.3,201,12,17.5,0.00373,0.00633,83.3,76.7,12,190,0,86.9,13.83,0.00,0.00
15min,AgWx,beryljct,423,25JUN2018:20:00:00,88.8,13.19,86.8,86.4,87.1,87.9,86.3,14,15,12,0.608,32.1,34.2,29.7,12.14,13.1,200,9.9,18.3,0.00364,0.00636,83.2,76.8,12,151,0,86.3,13.83,0.00,0.00
15min,AgWx,beryljct,423,25JUN2018:20:15:00,88.1,13.16,86.4,86.3,86.6,87.2,85.7,14,15,13,0.614,31.5,33.5,29.2,9.95,12.7,204,8.9,18.2,0.00218,0.00283,83.2,76.9,12,118,0,84.9,13.83,0.00,0.00
15min,AgWx,beryljct,423,25JUN2018:20:30:00,87.3,13.17,85.7,86.0,85.9,86.2,85.4,14,15,13,0.603,31.7,33.6,29.7,12.93,12.4,194,8.1,17.3,0.00202,0.00264,83.0,77.0,12,81,0,83.9,13.83,0.00,0.00
15min,AgWx,beryljct,423,25JUN2018:20:45:00,86.3,13.16,84.5,83.8,84.9,86.0,83.8,15,16,14,0.609,31.6,32.9,30.2,10.15,10.3,201,8.2,16.0,0.00168,0.00226,82.9,77.2,12,45,0,82.4,13.83,0.00,0.00
15min,AgWx,beryljct,423,25JUN2018:21:00:00,85.0,13.14,83.5,82.4,83.7,84.5,82.4,15,17,14,0.623,31.5,33.1,29.8,10.08,9.9,202,7.0,13.0,0.00150,0.00203,82.6,77.2,12,13,0,81.0,13.83,0.00,0.00
15min,AgWx,beryljct,423,25JUN2018:21:15:00,83.6,13.11,82.2,81.6,82.4,83.2,81.6,16,17,15,0.619,31.5,32.9,30.3,8.4,9.0,204,7.0,12.3,0.00133,0.00182,82.4,77.3,12,2,0,79.4,13.84,0.00,0.00
15min,AgWx,beryljct,423,25JUN2018:21:30:00,82.5,13.13,81.9,81.6,81.9,82.4,81.4,16,18,15,0.610,31.5,33.7,30.0,8.48,9.7,204,6.8,14.0,0.00139,0.00189,82.2,77.4,12,0,0,78.8,13.84,0.00,0.00
15min,AgWx,beryljct,423,25JUN2018:21:45:00,81.7,13.09,81.0,80.2,81.2,82.0,80.1,17,18,15,0.597,31.7,32.9,30.2,10.48,9.1,207,7.2,14.4,0.00128,0.00176,81.9,77.5,12,0,0,77.9,13.84,0.00,0.00
15min,AgWx,beryljct,423,25JUN2018:22:00:00,80.6,13.1,79.8,79.5,79.9,80.4,79.3,17,18,17,0.592,31.8,32.9,30.8,7.519,8.3,202,7.0,10.6,0.00115,0.00159,81.7,77.5,12,0,0,76.5,13.84,0.00,0.00
15min,AgWx,beryljct,423,25JUN2018:22:15:00,79.5,13.09,78.2,77.4,78.5,79.6,77.1,18,20,17,0.615,31.9,33.5,30.5,7.585,7.2,193,6.5,10.0,0.00097,0.00137,81.4,77.6,12,0,0,75.2,13.84,0.00,0.00
15min,AgWx,beryljct,423,25JUN2018:22:30:00,78.4,13.07,78.1,77.9,78.0,78.9,77.1,19,20,17,0.640,32.0,33.4,30.8,6.357,7.7,197,6.8,10.9,0.00102,0.00143,81.1,77.6,12,0,0,74.6,13.84,0.00,0.00
15min,AgWx,beryljct,423,25JUN2018:22:45:00,77.8,13.08,77.6,78.2,77.6,78.2,77.2,19,20,18,0.586,32.5,33.6,31.0,11.4,8.0,202,7.7,11.4,0.00103,0.00143,80.8,77.6,12,0,0,74.3,13.84,0.00,0.00
15min,AgWx,beryljct,423,25JUN2018:23:00:00,77.5,13.06,78.1,77.2,78.1,78.7,77.1,18,19,17,0.590,31.6,32.9,30.7,9.36,8.9,190,9.2,13.2,0.00117,0.00159,80.5,77.6,12,0,0,75.2,13.84,0.00,0.00
15min,AgWx,beryljct,423,25JUN2018:23:15:00,76.3,13.05,72.5,72.5,73.0,77.4,71.8,24,27,18,0.656,34.1,36.4,30.9,7.388,8.0,162,6.4,10.2,0.00090,0.00123,80.2,77.6,12,0,0,70.9,13.84,0.00,0.00
15min,AgWx,beryljct,423,25JUN2018:23:30:00,74.6,13.04,71.3,70.2,71.5,72.5,70.2,25,26,24,0.654,33.9,34.8,33.4,6.27,7.2,170,6.5,9.2,0.00077,0.00107,79.9,77.6,12,0,0,69.3,13.84,0.00,0.00
15min,AgWx,beryljct,423,25JUN2018:23:45:00,72.9,13.03,69.9,68.0,70.1,70.7,68.0,25,27,24,0.627,32.5,33.7,31.7,6.072,6.9,172,5.5,8.6,0.00073,0.00101,79.6,77.6,12,0,0,67.8,13.84,0.00,0.00
15min,AgWx,beryljct,423,26JUN2018:00:00:00,71.2,13.03,66.8,66.4,67.0,68.1,66.0,27,29,25,0.636,32.0,33.0,30.4,5.59,6.4,183,4.8,7.8,0.00061,0.00085,79.3,77.5,12,0,0,64.9,13.84,0.00,0.00
15min,AgWx,beryljct,423,26JUN2018:00:15:00,69.6,13.01,66.7,66.9,66.6,67.8,65.4,27,31,24,0.568,31.2,34.1,29.2,6.642,6.7,181,7.2,8.3,0.00063,0.00088,79.1,77.5,12,0,0,64.5,13.85,0.00,0.00
15min,AgWx,beryljct,423,26JUN2018:00:30:00,68.9,13.01,68.0,67.7,67.8,69.2,66.4,24,27,22,0.566,29.9,31.4,28.7,6.883,7.2,181,5.8,8.6,0.00072,0.00100,78.8,77.5,12,0,0,65.7,13.85,0.00,0.00
15min,AgWx,bigpiney,439,25JUN2018:00:00:00,53.4,12.84,50.5,50.5,50.6,51.2,50.2,70,73,68,0.869,41.1,41.9,40.8,2.236,3.4,259,9.0,5.0,0.00013,0.00019,56.0,52.9,54,0,0,0.0,.,0.00,0.00
15min,AgWx,bigpiney,439,25JUN2018:00:15:00,53.1,12.84,49.4,50.9,49.7,51.3,47.4,71,78,66,0.846,40.7,41.2,40.1,0.723,1.2,23,65,2.9,0.00002,0.00004,56.0,53.0,54,0,0,0.0,.,0.00,0.00
15min,AgWx,bigpiney,439,25JUN2018:00:30:00,52.5,12.82,50.3,50.7,49.6,51.1,48.7,71,75,65,0.831,40.5,41.1,39.7,3.288,1.2,18,90,3.3,0.00002,0.00004,56.0,53.0,54,0,0,0.0,.,0.00,0.00
15min,AgWx,bigpiney,439,25JUN2018:00:45:00,51.8,12.81,49.0,48.3,48.3,50.6,47.3,73,76,66,0.864,40.1,40.9,39.7,3.551,3.3,240,10,4.3,0.00011,0.00015,55.9,53.0,54,0,0,0.0,.,0.00,0.00
15min,AgWx,bigpiney,439,25JUN2018:01:00:00,51.3,12.81,46.3,46.3,47.5,48.8,46.3,75,77,72,0.821,39.9,40.7,39.4,2.433,2.8,230,16,3.9,0.00008,0.00011,55.8,53.1,54,0,0,0.0,.,0.00,0.00
15min,AgWx,bigpiney,439,25JUN2018:01:15:00,50.7,12.8,44.9,44.4,46.4,47.3,44.4,77,84,75,0.831,39.7,40.8,38.8,5.59,2.1,187,62,7.0,0.00004,0.00007,55.7,53.0,54,0,0,0.0,.,0.00,0.00
15min,AgWx,bigpiney,439,25JUN2018:01:30:00,50.1,12.78,45.7,45.6,45.2,45.8,44.5,83,84,80,0.831,40.2,40.5,39.8,3.705,4.2,163,15,6.5,0.00007,0.00010,55.7,53.1,54,0,0,0.0,.,0.00,0.00
15min,AgWx,bigpiney,439,25JUN2018:01:45:00,49.6,12.77,47.8,47.4,45.7,47.4,45.2,78,81,73,0.807,39.4,39.8,38.9,3.42,4.7,219,28,7.8,0.00010,0.00014,55.6,53.1,54,0,0,0.0,.,0.00,0.00
15min,AgWx,bigpiney,439,25JUN2018:02:00:00,49.3,12.77,45.5,45.1,45.0,47.3,43.4,80,85,73,0.798,39.0,39.6,38.6,4.647,3.1,206,32,5.0,0.00006,0.00009,55.5,53.1,54,0,0,0.0,.,0.00,0.00
15min,AgWx,bigpiney,439,25JUN2018:02:15:00,48.8,12.76,43.6,43.4,43.8,45.1,43.2,82,85,78,0.800,38.6,39.1,38.2,3.201,3.2,192,27,4.8,0.00005,0.00008,55.4,53.2,54,0,0,0.0,.,0.00,0.00
15min,AgWx,bigpiney,439,25JUN2018:02:30:00,48.3,12.75,42.8,42.8,43.1,43.5,42.8,83,84,83,0.777,38.4,38.8,38.1,3.179,2.3,199,14,3.4,0.00002,0.00004,55.4,53.2,54,0,0,0.0,.,0.00,0.00
15min,AgWx,bigpiney,439,25JUN2018:02:45:00,47.7,12.73,44.0,43.4,42.7,43.5,42.2,84,86,83,0.800,38.3,39.0,37.5,2.587,2.8,260,32,3.9,0.00003,0.00005,55.3,53.2,54,0,0,0.0,.,0.00,0.00
15min,AgWx,bigpiney,439,25JUN2018:03:00:00,47.2,12.71,44.9,44.7,44.2,44.8,43.4,80,84,78,0.782,38.6,38.9,38.2,2.543,2.7,265,9.5,3.3,0.00005,0.00007,55.2,53.2,54,0,0,0.0,.,0.00,0.00
15min,AgWx,bigpiney,439,25JUN2018:03:15:00,46.9,12.71,43.7,43.6,44.3,44.7,43.6,81,83,78,0.795,38.7,39.1,38.3,3.42,3.2,254,5.7,4.1,0.00006,0.00008,55.1,53.2,54,0,0,0.0,.,0.00,0.00
15min,AgWx,bigpiney,439,25JUN2018:03:30:00,46.7,12.69,42.2,42.1,42.7,43.6,42.1,85,87,83,0.765,38.6,39.0,37.7,2.565,2.2,250,11,3.6,0.00001,0.00002,55.0,53.2,54,0,0,0.0,.,0.00,0.00
15min,AgWx,bigpiney,439,25JUN2018:03:45:00,46.3,12.69,43.7,42.8,42.0,42.8,41.3,85,88,83,0.779,37.9,38.4,37.0,1.82,2.1,274,29,3.3,0.00001,0.00002,54.9,53.2,54,0,0,0.0,.,0.00,0.00
15min,AgWx,bigpiney,439,25JUN2018:04:00:00,45.9,12.67,42.5,42.3,42.7,43.3,42.3,83,85,81,0.775,38.1,38.4,37.7,1.535,2.1,298,17,3.1,0.00002,0.00003,54.8,53.3,54,0,0,0.0,.,0.00,0.00
15min,AgWx,bigpiney,439,25JUN2018:04:15:00,45.5,12.66,43.0,42.6,42.5,42.9,41.7,84,87,83,0.769,38.1,38.6,37.6,1.841,2.3,291,17,3.8,0.00002,0.00003,54.8,53.2,54,0,0,0.0,.,0.00,0.00
15min,AgWx,bigpiney,439,25JUN2018:04:30:00,45.2,12.64,40.4,40.4,42.3,42.9,40.4,83,87,81,0.742,37.4,38.0,36.7,2.017,1.8,275,61,2.8,0.00001,0.00002,54.6,53.2,54,0,0,0.0,.,0.00,0.00
15min,AgWx,bigpiney,439,25JUN2018:04:45:00,44.7,12.63,37.6,37.8,38.8,40.5,37.8,87,90,84,0.689,35.2,37.0,34.4,2.74,2.3,205,16,3.5,0.00001,0.00002,54.6,53.2,54,0,0,0.0,.,0.00,0.00
15min,AgWx,bigpiney,439,25JUN2018:05:00:00,44.1,12.62,38.7,38.5,38.0,38.7,37.5,89,90,86,0.682,34.9,35.4,34.5,0.943,2.1,222,22,3.5,-0.00000,0.00000,54.5,53.2,54,0,0,0.0,.,0.00,0.00
15min,AgWx,bigpiney,439,25JUN2018:05:15:00,43.4,12.62,37.5,37.8,38.8,39.3,37.8,86,87,85,0.661,34.9,35.5,33.9,2.674,1.0,229,17,3.1,-0.00002,-0.00002,54.4,53.2,54,0,0,0.0,.,0.00,0.00
15min,AgWx,bigpiney,439,25JUN2018:05:30:00,42.7,12.6,37.8,37.4,37.0,37.7,36.8,88,88,86,0.663,33.6,34.1,33.3,0.899,2.0,222,8.9,3.6,0.00000,0.00001,54.3,53.2,54,1,0,0.0,.,0.00,0.00
15min,AgWx,bigpiney,439,25JUN2018:05:45:00,42.1,12.6,38.6,38.6,38.2,38.8,37.5,85,88,83,0.664,34.1,34.4,33.7,1.403,1.3,203,14,2.0,-0.00000,0.00000,54.2,53.2,54,3,0,0.0,.,0.00,0.00
15min,AgWx,bigpiney,439,25JUN2018:06:00:00,41.6,12.61,37.5,36.9,37.7,38.6,36.9,88,89,84,0.657,34.4,34.9,33.8,0.702,0.7,181,15,1.4,-0.00038,-0.00040,54.1,53.2,54,16,0,0.0,.,0.00,0.00
15min,AgWx,bigpiney,439,25JUN2018:06:15:00,41.4,12.63,37.8,37.6,37.3,37.8,36.8,89,91,88,0.680,34.5,35.1,33.7,0.636,0.2,156,16,1.6,-0.00025,-0.00027,53.9,53.2,54,46,0,0.0,.,0.00,0.00
15min,AgWx,bigpiney,439,25JUN2018:06:30:00,41.6,12.64,40.8,39.9,38.3,39.9,37.5,89,90,85,0.706,35.3,35.8,34.7,0,0.9,132,15,1.8,-0.00008,-0.00007,53.9,53.2,54,77,0,0.0,.,0.00,0.00
15min,AgWx,bigpiney,439,25JUN2018:06:45:00,42.3,12.65,42.2,41.8,40.8,41.8,39.9,85,87,83,0.761,36.6,37.6,35.5,0,0.0,2.7,1.5,0.5,0.00009,0.00010,53.7,53.2,54,114,0,0.0,.,0.00,0.00